Preview of NWS' New Version of Forecast
This preview is not operational and should not be used for support decisions.
Latest weather observations around

Chicago, Chicago-O'Hare International Airport (KORD)

Using English Units (Switch to International System of Units)
Date/ Time (CDT) Wind (mph) Vis. (mi) Weather Sky Cond. Temp (°F) Rel. Humidity Wind Chill (°F) Heat Index (°F) Pressure Precip. (in)
Air Dwpt 6 hour Altimeter (inHg) Sea level (inHg) 1 hr 3 hr 6 hr
Max Min
Apr 19 16:51 NW 8 10 Mostly Clear FEW250 54 24     31%     30.38 30.39      
Apr 19 15:51 NNE 13 10 Mostly Clear FEW250 54 22     28%     30.37 30.38      
Apr 19 14:51 N 13 10 Mostly Clear FEW055 FEW250 53 26     35%     30.36 30.37      
Apr 19 13:51 NNW 10 10 Mostly Clear FEW050 FEW250 52 27     38%     30.35 30.36      
Apr 19 11:51 N 13 10 Mostly Clear FEW250 48 27     44% 43   30.33 30.34      
Apr 19 08:51 N 11 10 Mostly Clear FEW250 36 27     70% 28   30.27 30.29      
Apr 19 07:51 N 10 10 Clear CLR 34 26     72% 26   30.23 30.25      
Apr 19 05:51 NNW 10 10 Mostly Clear FEW030 32 29     88% 24   30.15 30.17      
Apr 19 04:51 N 10 10 Clear CLR 34 32     92% 26   30.11 30.13      
Apr 19 03:38 N 9 10 Cloudy FEW009 BKN048 OVC110 34 33     96% 27   30.06        
Apr 19 02:51 NNE 13 9 Light Snow and Fog/Mist BKN009 OVC021 33 33     100% 24   30.04 30.05      
Apr 19 02:10 NNE 15 5 Light Snow and Fog/Mist OVC007 32 32     100% 22   30.01        
Apr 19 01:51 NNE 11 4 Light Snow and Fog/Mist OVC007 32 32     100% 23   30 30.02      
Apr 19 01:40 N 13 2 Light Snow and Fog/Mist OVC009 32 32     100% 22   30        
Apr 18 23:51 NNW 11 1.75 Light Snow and Fog/Mist BKN006 OVC010 32 32     100% 23   29.94 29.96      
Apr 18 22:51 NW 13 1.5 Light Snow and Fog/Mist BKN007 OVC012 33 32     96% 24   29.92 29.94      
Apr 18 22:17 NW 11 1.75 Light Snow and Fog/Mist BKN007 OVC014 33 32     96% 24   29.91        
Apr 18 22:01 NW 11 2 Light Snow and Fog/Mist BKN006 OVC014 32 32     100% 23   29.91        
Apr 18 19:28 N 9 1.5 and Fog/Mist BKN007 OVC011 33 32     96% 25   29.86        
Apr 18 19:12 N 9 2.5 Light Drizzle and Fog/Mist BKN007 OVC012 33 32     96% 25   29.85        
Apr 18 17:51 NNE 11 4 Light Drizzle and Fog/Mist OVC007 34 32     92% 26   29.82 29.84      
Apr 18 17:35 NNE 11 3 Light Drizzle and Fog/Mist BKN007 OVC012 34 31     88% 26   29.82        
Apr 18 17:07 NNE 11 2 Light Drizzle and Fog/Mist OVC008 34 31     88% 26   29.81        
Apr 18 16:51 NNE 15 3 Light Drizzle and Fog/Mist OVC008 34 31     88% 24   29.81 29.83      
Apr 18 16:40 NNE 15 3 Light Drizzle and Fog/Mist OVC008 34 30     85% 24   29.8        
Apr 18 16:24 NNE 15 3 Light Drizzle and Fog/Mist SCT008 OVC013 34 30     85% 24   29.8        
Apr 18 15:51 NNE 14 4 Clear   34 30     85% 25   29.79 29.8      
Apr 18 15:36 NE 14 4 Light Drizzle and Fog/Mist BKN013 OVC036 36 29     75% 27   29.78        
Apr 18 15:27 NE 14 5 Light Drizzle and Fog/Mist BKN016 OVC036 36 29     75% 27   29.78        
Apr 18 14:51 ENE 14 10 Cloudy SCT016 OVC042 36 28     73% 27   29.78 29.79      
Apr 18 13:51 NE 16 10 Cloudy SCT016 OVC047 35 27     72% 25   29.77 29.79      
Apr 18 13:04 ENE 20 10 Cloudy and Windy SCT018 OVC046 35 28     75% 24   29.75        
Apr 18 12:51   10 Clear   35 28     75%     29.74 29.76      
Apr 18 12:25 ENE 20 10 Light Rain OVC020 35 28     75% 24   29.76        
Apr 18 12:10 E 21 10 Light Rain and OVC021 35 27     72% 24   29.77        
Apr 18 11:51 E 20 10 Light Rain OVC022 35 26     69% 24   29.78 29.8      
Apr 18 10:51 E 18 10 Cloudy OVC021 37 26     64% 27   29.79 29.81      
Apr 18 09:51 E 18 10 Cloudy OVC022 36 26     67% 26   29.8 29.81      
Apr 18 08:51 ESE 16 10 Cloudy OVC024 36 26     67% 26   29.83 29.84      
Apr 18 08:36 E 14 10 Cloudy OVC024 36 26     67% 27   29.83        
Apr 18 07:51 E 14 10 Cloudy OVC026 36 27     70% 27   29.84 29.85      
Apr 18 06:51 E 11 10 Mostly Cloudy BKN027 BKN060 34 26     72% 26   29.84 29.86      
Apr 18 06:09 E 6 10 Mostly Cloudy BKN029 31 25     78% 25   29.86        
Apr 18 05:51 E 8 10 Mostly Clear FEW029 31 24     75% 23   29.85 29.87      
Apr 18 04:51 ENE 5 10 Mostly Clear FEW030 30 24     78% 25   29.87 29.88      
Apr 18 03:51 Calm 10 Clear CLR 31 24     75%     29.89 29.91      
Apr 18 02:51 ENE 3 10 Clear CLR 32 25     75% 29   29.89 29.91      
Apr 18 01:51 ENE 5 10 Clear CLR 32 24     72% 27   29.91 29.93      
Apr 18 00:51 NNE 3 10 Clear CLR 33 24     69% 30   29.93 29.95      
Apr 17 23:51 NE 5 10 Clear CLR 33 24     69% 29   29.93 29.95      
Apr 17 22:51 E 5 10 Mostly Clear FEW045 34 23     64% 30   29.95 29.96      
Apr 17 21:51 E 9 10 Mostly Clear FEW045 36 23     59% 29   29.95 29.96      
Apr 17 20:51 E 9 10 Mostly Clear FEW044 38 22     52% 31   29.93 29.95      
Apr 17 19:51 E 9 10 Partly Cloudy SCT047 40 21     46% 34   29.91 29.93      
Apr 17 17:51 NNW 7 10 Mostly Clear FEW045 43 21     41% 39   29.89 29.9      
Apr 17 16:51 WNW 7 10 Partly Cloudy SCT045 43 22     43% 39   29.87 29.89      
Apr 17 15:51 NW 11 10 Partly Cloudy SCT045 43 21     41% 37   29.87 29.89      
Apr 17 14:51 W 9 10 Partly Cloudy SCT043 41 21     45% 35   29.87 29.89      
Apr 17 13:51 WNW 10 10 Mostly Cloudy BKN043 40 21     46% 33   29.89 29.9      
Apr 17 12:51 NW 10 10 Mostly Cloudy BKN040 38 21     50% 31   29.88 29.9      
Apr 17 11:51 NNW 16 10 Mostly Cloudy BKN038 37 20     50% 28   29.89 29.91      
Apr 17 10:51 NNW 18 10 Mostly Cloudy BKN037 35 20     54% 24   29.89 29.9      
Apr 17 09:51 NNW 20 10 Mostly Cloudy and Windy BKN034 33 18     53% 21   29.89 29.91      
Apr 17 08:51   10 Mostly Cloudy BKN030 BKN046 33 20     58%     29.89 29.91      
Apr 17 07:51 NW 21 10 Partly Cloudy and Windy SCT025 SCT044 31 20     63% 18   29.89 29.91      
Apr 17 06:51 WNW 13 10 Mostly Cloudy FEW023 BKN044 31 21     66% 21   29.89 29.91      
Apr 17 05:51 W 8 10 Mostly Cloudy FEW020 BKN040 30 21     69% 22   29.88 29.9      
Apr 17 04:51 W 9 10 Mostly Cloudy BKN044 30 21     69% 22   29.88 29.9      
Apr 17 03:51 WNW 11 10 Mostly Clear FEW036 30 20     66% 21   29.88 29.9      
Apr 17 02:51 WNW 15 10 Cloudy OVC036 31 20     63% 20   29.88 29.91      
Apr 17 01:51 WNW 11 10 Cloudy OVC040 32 21     64% 23   29.88 29.89      
Apr 17 00:51 W 13 10 Cloudy FEW031 BKN042 OVC055 32 21     64% 22   29.88 29.9 0   0
Apr 16 23:51 WNW 14 9 Light Snow OVC050 32 22     66% 22   29.9 29.92 0    
Apr 16 22:51 WNW 15 9 Light Snow SCT032 OVC050 33 22     63% 23   29.91 29.93 0    
Apr 16 21:51 WNW 14 9 Light Snow SCT028 OVC046 33 23     66% 23   29.91 29.93 0 0  
Apr 16 20:51 WNW 17 10 Light Snow FEW030 OVC041 34 24     67% 23   29.9 29.92 0    
Apr 16 19:51 WNW 15 10 Cloudy BKN035 OVC045 34 23     64% 24   29.89 29.91      
Apr 16 18:51 W 15 10 Cloudy BKN037 OVC045 34 23     64% 24   29.89 29.91     0
Apr 16 17:51 WNW 15 10 Cloudy OVC031 34 23     64% 24   29.88 29.9      
Jun 11 22:51 SSW 17 10 Clear CLR 84 58     41%   83 29.91 29.89      
Jun 11 14:51 SSW 13 10 Clear   91 61     37%   91 29.91 29.89      
Jun 10 09:51 SW 13 10 Mostly Cloudy BKN250 77 57     50%   77 29.87 29.86      
Jun 09 22:51 E 6 10 Mostly Clear FEW075 67 55     66%     29.83 29.81      
Jun 09 15:51 ENE 13 10 Clear   83 57     41%   82 29.76 29.75      
Jun 08 07:51 SW 5 10 Clear   67 46     47%     30.05 30.03